Шилале

Литва     55°29′27″N   22°10′56″E
темп.,
°C
ветер,
м/с
пор.,
м/с
влажн.,
%
обл.,
%
осадки,
мм/ч
давл.,
гПа
погр.,
м
22 октября, пт
пт2200:00+8зюз10177796 0.3 9901306
03:00+8зюз101783100 1.4 9911388
06:00+6зюз10187811 0.5 9921306
09:00+6зюз1017725 0.6 9951393
12:00+8зюз10176834 0.3 9971744
15:00+7юз81688100 2.2 9971482
18:00+6юз91793100 0.8 9951466
21:00+5ююз81794100 2.3 9931402
23 октября, сб
сб2300:00+6з61278100 2.4 997786
03:00+5зюз5127899 2.9 1000468
06:00+4з4127996 0.3 1002437
09:00+4з4128629 0.3 1004398
12:00+8зсз697198 1.3 10071127
15:00+8сз696525 1.5 10101251
18:00+5сз5117799 0.1 1014815
21:00+4сз6128182 0.1 1018857
24 октября, вс
вс2400:00+4сз6128797 0.1 1021902
03:00+4сз5108283 0.5 1023782
06:00+3сз498010 0.1 1025426
09:00+2зсз388563 0.1 1027206
12:00+6сз366260 0.0 1029831
15:00+7зсз3459100 0.0 10291168
18:00+6зюз227499 0.0 102934
21:00+4юз2282100 0.0 103025
25 октября, пн
пн2500:00+3ю3587100 0.0 1030107
03:00+2ю379176 0.0 1029143
06:00+1ю399150 0.0 1028191
09:00+1ю3119495 0.0 1028242
12:00+6ююз5117216 0.0 1027459
15:00+9ююз510605 0.0 1025664
18:00+7ю512660 0.0 1023417
21:00+5ююз5147199 0.0 1023406
26 октября, вт
вт2600:00+4ююз41272100 0.0 1022333
03:00+3ю3978100 0.0 1021228
06:00+2ююз3884100 0.0 1019168
09:00+3ююз3886100 0.0 1019184
12:00+6юз41079100 0.0 1018337
15:00+10зюз6117698 0.0 1017728
18:00+9зюз61293100 0.1 1017755
21:00+8з5139060 0.2 1018533